[[{"header":{"parameterUnit":"m.s-1","parameterCategory":1,"la1":30.2992,"la2":30.254,"lo1":-89.0895,"lo2":-89.0443,"dy":0.0025,"dx":0.0025,"nx":19,"ny":19,"refTime":"2026-04-07T21:00:00:Z","depth":0,"parameterNumber":2,"parameterNumberName":"U-component_of_WINDS"},"data":[0,0,0,-6.5122,-6.5124,-6.5215,-6.5215,-6.5371,-6.5373,0,0,0,0,0,0,0,0,0,0,0,-6.5121,-6.5123,-6.5122,-6.5125,-6.5215,-6.5215,-6.5371,-6.5373,0,0,0,0,0,0,0,0,0,0,0,-6.512,-6.5122,-6.5125,-6.5125,-6.5215,-6.5215,-6.5371,-6.5287,0,0,0,0,0,0,0,0,0,0,-6.5192,-6.5217,-6.5122,-6.5125,-6.5126,-6.5215,-6.5215,-6.5283,-6.5293,-6.5348,0,-6.5406,0,-6.5393,-6.5386,-6.5387,0,0,0,-6.5105,-6.521,-6.5211,-6.5125,-6.5127,-6.5215,-6.5169,-6.5288,-6.5299,-6.5362,-6.5408,-6.5412,-6.5395,-6.5388,-6.5389,-6.5779,-6.5782,0,0,-6.51,-6.5151,-6.5203,-6.5219,-6.521,-6.5166,-6.5172,-6.5294,-6.5347,-6.5408,-6.5415,-6.5398,-6.5389,-6.539,-6.5777,-6.578,0,0,0,-6.5099,-6.5148,-6.5145,-6.5214,-6.5228,-6.5169,-6.5176,-6.5341,-6.5336,-6.5417,-6.54,-6.539,-6.5392,-6.5774,-6.5778,-6.5964,0,0,0,-6.5095,-6.5147,-6.5144,-6.5177,-6.5226,-6.5286,-6.5221,-6.5328,-6.534,-6.5399,-6.539,-6.5394,-6.5771,-6.5776,-6.5953,-6.6043,0,0,0,-6.5106,-6.5148,-6.5171,-6.5179,-6.522,-6.5283,-6.5284,-6.5329,-6.5331,-6.5387,-6.5395,-6.5768,-6.5775,-6.5942,-6.6026,-6.6161,0,0,0,-6.5132,-6.5334,-6.5175,-6.5394,-6.522,-6.5399,-6.5283,-6.5413,-6.5483,-6.5391,-6.5771,-6.5778,-6.5939,-6.6015,-6.615,-6.6283,-6.6343,0,0,-6.5415,-6.537,-6.5495,-6.5355,-6.5575,-6.5381,-6.5628,-6.5643,-6.5601,-6.5722,-6.5731,-6.5957,-6.6025,-6.6158,-6.6668,-6.6716,0,0,0,-6.5602,-6.5692,-6.574,-6.581,-6.5829,-6.5851,-6.5824,-6.5829,-6.593,-6.5674,-6.6041,-6.608,-6.6156,-6.6217,-6.6258,-6.632,-6.5808,-6.5808,-6.5807,-6.6074,-6.6012,-6.6213,-6.6162,-6.6233,-6.6203,-6.6253,-6.6256,-6.617,-6.6258,-6.6293,-6.661,-6.6684,-6.6714,-6.678,-6.6359,-6.636,-6.6361,-6.6361,-6.6482,-6.66,-6.6484,-6.6638,-6.657,-6.6698,-6.6678,-6.6613,-6.6722,-6.6578,-6.6642,-6.6489,-6.677,-6.6823,-6.6375,-6.6372,-6.6371,-6.6369,-6.6368,-6.6783,-6.6829,-6.6834,-6.6931,-6.7012,-6.6952,-6.7063,-6.6996,-6.6935,-6.6998,-6.7028,-6.7024,-6.7011,-6.7017,-6.7019,-6.702,-6.7021,-6.7021,-6.7022,-6.7093,-6.7093,-6.7195,-6.7233,-6.727,-6.7311,-6.7285,-6.7319,-6.734,-6.7282,-6.7282,-6.7188,-6.681,-6.6715,-6.7039,-6.7036,-6.7034,-6.7032,-6.7031,-6.7527,-6.7419,-6.7577,-6.7615,-6.7654,-6.7739,-6.7654,-6.773,-6.7749,-6.7805,-6.7698,-6.743,-6.7377,-6.7344,-6.7265,-6.7712,-6.7712,-6.7712,-6.7712,-6.778,-6.7749,-6.7895,-6.796,-6.8015,-6.7955,-6.8135,-6.8117,-6.8081,-6.8089,-6.8015,-6.7905,-6.7875,-6.784,-6.7796,-6.7722,-6.8274,-6.8275,-6.8275,-6.8043,-6.8014,-6.818,-6.8145,-6.8172,-6.8195,-6.8361,-6.8439,-6.8376,-6.8297,-6.8093,-6.8069,-6.7891,-6.7837,-6.7751,-6.7684,-6.7546,0,0]},{"header":{"parameterUnit":"m.s-1","parameterCategory":1,"la1":30.2992,"la2":30.254,"lo1":-89.0895,"lo2":-89.0443,"dy":0.0025,"dx":0.0025,"nx":19,"ny":19,"refTime":"2026-04-07T21:00:00:Z","depth":0,"parameterNumber":3,"parameterNumberName":"V-component_of_WINDS"},"data":[0,0,0,1.362,1.362,1.3614,1.3614,1.3611,1.3611,0,0,0,0,0,0,0,0,0,0,0,1.3625,1.3625,1.362,1.362,1.3614,1.3614,1.3611,1.3611,0,0,0,0,0,0,0,0,0,0,0,1.3625,1.3625,1.3625,1.362,1.3614,1.3614,1.3611,1.3614,0,0,0,0,0,0,0,0,0,0,1.3619,1.3627,1.3625,1.3625,1.362,1.3614,1.3614,1.3614,1.3614,1.3616,0,1.362,0,1.3616,1.3612,1.3612,0,0,0,1.3617,1.3627,1.3622,1.3625,1.362,1.3614,1.3616,1.3614,1.3614,1.3616,1.362,1.362,1.3616,1.3612,1.3612,1.3638,1.3638,0,0,1.3617,1.3625,1.3623,1.3623,1.3625,1.3616,1.3616,1.3614,1.3618,1.362,1.3619,1.3616,1.3612,1.3612,1.3638,1.3638,0,0,0,1.362,1.3626,1.3621,1.3623,1.3622,1.3616,1.3616,1.3618,1.3616,1.3619,1.3616,1.3612,1.3612,1.3638,1.3638,1.3659,0,0,0,1.362,1.3627,1.3622,1.3626,1.3622,1.362,1.362,1.3616,1.3616,1.3616,1.3612,1.3612,1.3637,1.3638,1.3658,1.3666,0,0,0,1.3624,1.3628,1.3628,1.3627,1.3625,1.362,1.3617,1.3616,1.3614,1.3612,1.3612,1.3637,1.3638,1.3656,1.3665,1.3676,0,0,0,1.363,1.3646,1.3629,1.3645,1.3625,1.3633,1.3617,1.3623,1.3624,1.3612,1.3637,1.3638,1.3656,1.3664,1.3675,1.3686,1.3692,0,0,1.3654,1.3649,1.3658,1.3642,1.3656,1.3633,1.365,1.3642,1.3634,1.3637,1.3638,1.3658,1.3665,1.3676,1.3723,1.3728,0,0,0,1.3668,1.3674,1.3676,1.3678,1.3674,1.3672,1.3661,1.3659,1.3662,1.3638,1.3665,1.3669,1.3675,1.368,1.3684,1.3689,1.3641,1.3641,1.3641,1.3711,1.3702,1.3716,1.3707,1.3709,1.37,1.3701,1.3696,1.3684,1.3691,1.3691,1.3722,1.3728,1.3731,1.3736,1.3698,1.3698,1.3698,1.3698,1.3745,1.3752,1.3739,1.3748,1.3738,1.3746,1.3738,1.373,1.3735,1.372,1.3725,1.3709,1.3736,1.374,1.3699,1.3699,1.3699,1.3699,1.3699,1.3771,1.3773,1.3772,1.3775,1.3779,1.3769,1.3775,1.3766,1.3757,1.3762,1.3761,1.3761,1.3758,1.3763,1.3763,1.3763,1.3763,1.3763,1.3763,1.3799,1.3796,1.3803,1.3802,1.3803,1.3803,1.3796,1.3797,1.3795,1.3787,1.3787,1.3775,1.3741,1.3732,1.3765,1.3764,1.3764,1.3764,1.3764,1.3834,1.3825,1.3835,1.3837,1.3835,1.384,1.383,1.3832,1.3831,1.3835,1.3823,1.38,1.3793,1.3789,1.3782,1.3825,1.3825,1.3825,1.3825,1.3855,1.3852,1.3861,1.3864,1.3866,1.3858,1.387,1.3866,1.3859,1.3858,1.3851,1.3841,1.3838,1.3832,1.3828,1.3821,1.3873,1.3873,1.3873,1.3876,1.3873,1.3885,1.388,1.3879,1.3878,1.3889,1.3893,1.3884,1.3875,1.3857,1.3855,1.3838,1.3833,1.3822,1.3816,1.3802,0,0]}]]